Starlink 2101

operational
NORAD ID: 47381 Int'l Des: 2021-005 Owner: SPXS Country: US Constellation: starlink
LEOCIRCULARSTARLINK_TYPE

Über Starlink 2101

Beschreibung wird geladen...

Live-Position

3D-Globus wird geladen...

Nächste Überflüge

Höhenverlauf

Altitude vs Time

uPlot chart will show altitude changes over time

Zweizeiliger Elementsatz

1 47381U 21005AJ 25278.50020014 .00012493 00000-0 85586-3 0 9991
2 47381 53.0557 13.3785 0001530 96.5116 263.6047 15.06411388260007
Epoch: 5. Okt. 2025 • Age: 13 hours

Aktueller Status

Höhe 546.9 km
Geschwindigkeit 7.59 km/s
Subsatellitenpunkt 8.87°N, 146.84°E
Startdatum 20. Jan. 2021
Alter 4.7 years
Typ internet

Technische Details

Klassifizierung Payload
Masse 260.00 kg
Trockenmasse 248.00 kg
Gesamtmasse 260.00 kg
Länge 0.20 m
Durchmesser 2.80 m
Spannweite 9.00 m
Form Box + pan
Hersteller SPXS
Bus-Typ Starlink
Phasenstatus In Orbit
Besitzer/Staat SPXS/US

Große Konstellationen

Loading constellations...